KF7HDR Weather Reports


time (UTC)temp
F
wind
direction
speed
knots
gust
knots
rain 1hr
in
rain 24hr
in
rain mn
in
humidity
%
barometer
mb
20260505140559 52 211 0.9 3.5 0.00 0.00 0.00 91 1017.4
20260505124549 52 269 0.9 2.6 0.00 0.00 0.00 89 1016.9
20260505123548 52 59 0.9 4.3 0.00 0.00 0.00 89 1016.9
20260505122547 52 164 0.9 3.5 0.00 0.00 0.00 89 1016.9
20260505121545 52 286 3.5 5.2 0.00 0.00 0.00 89 1016.9
20260505120544 52 66 1.7 4.3 0.00 0.00 0.00 89 1016.9
20260505115543 52 266 1.7 4.3 0.00 0.00 0.00 89 1016.9
20260505114602 52 106 1.7 5.2 0.00 0.00 0.00 88 1016.8
20260505113600 52 16 0.9 3.5 0.00 0.00 0.00 88 1016.8
20260505112539 52 115 1.7 2.6 0.00 0.00 0.00 88 1017.0
20260505111538 52 236 0.9 2.6 0.00 0.00 0.00 88 1016.9
20260505110536 52 313 1.7 4.3 0.00 0.00 0.00 88 1016.7
20260505101529 53 0.0 0.0 0.00 0.00 0.00 87 1016.3
20260505100528 53 0.0 0.0 0.00 0.00 0.00 87 1016.4
20260505095527 53 284 0.0 1.7 0.00 0.00 0.00 86 1016.4
20260505094525 53 0.0 0.0 0.00 0.00 0.00 86 1016.4
20260505093544 53 0.0 0.0 0.00 0.00 0.00 86 1016.3
20260505092523 53 0.0 0.9 0.00 0.00 0.00 86 1016.2
20260505091522 53 0.0 0.9 0.00 0.00 0.00 86 1016.0
20260505090540 53 0.0 0.9 0.00 0.00 0.00 86 1016.0
20260505085519 54 0.0 1.7 0.00 0.00 0.00 85 1015.9
20260505084518 54 225 0.0 1.7 0.00 0.00 0.00 84 1015.9
20260505083517 55 209 0.0 1.7 0.00 0.00 0.00 84 1016.0
20260505082516 55 0.0 0.9 0.00 0.00 0.00 84 1015.8
20260505081614 55 0.0 0.0 0.00 0.00 0.00 84 1015.8
20260505080632 55 0.0 0.0 0.00 0.00 0.00 84 1015.7
20260505075611 55 253 0.0 1.7 0.00 0.00 0.00 84 1015.7
20260505074610 55 197 0.0 1.7 0.00 0.00 0.00 84 1015.5
20260505073608 55 0.0 0.9 0.00 0.00 0.00 84 1015.5
20260505072628 55 264 0.0 0.9 0.00 0.00 0.00 84 1015.4
20260505071627 55 0.0 0.9 0.00 0.00 0.00 84 1015.2
20260505070624 55 0.0 0.9 0.00 0.00 0.00 84 1015.2
20260505065604 56 0.0 1.7 0.00 0.00 0.00 83 1015.1
20260505064602 56 0.0 0.0 0.00 0.00 0.00 83 1014.9
20260505063601 56 0.0 0.0 0.00 0.00 0.00 82 1014.8
20260505062620 57 0.0 0.0 0.00 0.00 0.00 82 1014.7
20260505061558 58 0.0 0.9 0.00 0.00 0.00 81 1014.5
20260505060557 58 179 0.9 2.6 0.00 0.00 0.00 80 1014.6
20260505055556 59 0.0 1.7 0.00 0.00 0.00 79 1014.5
20260505054614 60 0.0 1.7 0.00 0.00 0.00 79 1014.5
20260505053553 60 149 0.0 0.9 0.00 0.00 0.00 78 1014.4
20260505052552 60 155 0.0 0.9 0.00 0.00 0.00 78 1014.2
20260505051610 61 0.0 0.0 0.00 0.00 0.00 77 1014.2
20260505050549 61 0.0 0.0 0.00 0.00 0.00 75 1014.2
20260505041543 64 0.0 1.7 0.00 0.00 0.00 70 1013.5
20260505040542 65 79 0.0 1.7 0.00 0.00 0.00 69 1013.5
20260505035601 66 0.0 2.6 0.00 0.00 0.00 68 1013.3
20260505034539 66 132 0.0 1.7 0.00 0.00 0.00 68 1013.2
20260505033538 67 180 0.9 3.5 0.00 0.00 0.00 68 1012.9
20260505032536 67 204 0.9 2.6 0.00 0.00 0.00 68 1012.8
20260505031556 68 120 0.9 2.6 0.00 0.00 0.00 69 1012.7
20260505030534 69 118 0.0 2.6 0.00 0.00 0.00 68 1012.6
20260505025532 70 93 0.9 3.5 0.00 0.00 0.00 67 1012.5
20260505024531 70 141 0.9 1.7 0.00 0.00 0.00 66 1012.4
20260505023550 71 248 0.9 1.7 0.00 0.00 0.00 65 1012.4
20260505022528 71 143 0.9 1.7 0.00 0.00 0.00 64 1012.3
20260505021527 72 169 0.9 1.7 0.00 0.00 0.00 63 1012.3
20260505020526 73 142 0.9 2.6 0.00 0.00 0.00 63 1012.3
20260505015545 73 167 0.9 4.3 0.00 0.00 0.00 62 1012.3
20260505014524 73 149 1.7 2.6 0.00 0.00 0.00 62 1012.3
20260505013542 73 145 0.9 2.6 0.00 0.00 0.00 61 1012.3
20260505012541 73 155 1.7 3.5 0.00 0.00 0.00 61 1012.4
20260505011520 74 169 1.7 3.5 0.00 0.00 0.00 60 1012.4
20260505010518 74 126 0.9 2.6 0.00 0.00 0.00 60 1012.5
20260505005517 74 188 1.7 3.5 0.00 0.00 0.00 58 1012.6
20260505004515 75 230 1.7 1.7 0.00 0.00 0.00 57 1012.7
20260505003635 76 192 1.7 2.6 0.00 0.00 0.00 55 1012.5
20260505002613 75 139 0.9 1.7 0.00 0.00 0.00 56 1012.7
20260505001612 76 313 0.9 1.7 0.00 0.00 0.00 55 1012.6
20260505000611 75 159 2.6 3.5 0.00 0.00 0.00 56 1012.8
20260504235609 74 225 0.9 3.5 0.00 0.00 0.00 56 1012.9
20260504234628 75 209 1.7 4.3 0.00 0.00 0.00 56 1012.8
20260504233627 75 206 1.7 2.6 0.00 0.00 0.00 56 1012.8
20260504232606 0 0.0 0.0 0.00 0.00 0.00 1013.0
20260504231604 0 0.0 0.0 0.00 0.00 0.00 1012.9
20260504230603 74 196 0.9 2.6 0.00 0.00 0.00 54 1013.2
20260504225602 74 184 1.7 2.6 0.00 0.00 0.00 55 1013.1
20260504224600 74 199 2.6 2.6 0.00 0.00 0.00 54 1013.3
20260504223600 74 197 2.6 2.6 0.00 0.00 0.00 54 1013.5
20260504222618 73 182 0.9 3.5 0.00 0.00 0.00 56 1013.5
20260504221557 73 173 3.5 3.5 0.00 0.00 0.00 56 1013.7
20260504220555 72 173 0.9 3.5 0.00 0.00 0.00 56 1013.8
20260504215554 72 0.0 2.6 0.00 0.00 0.00 56 1013.9
20260504214553 72 277 0.9 2.6 0.00 0.00 0.00 57 1013.9
20260504213552 71 171 1.7 2.6 0.00 0.00 0.00 59 1014.1
20260504212551 0 0.0 0.0 0.00 0.00 0.00 1014.3
20260504211550 0 0.0 0.0 0.00 0.00 0.00 1014.4
20260504210548 69 191 0.9 1.7 0.00 0.00 0.00 60 1014.6
20260504205547 69 191 0.9 1.7 0.00 0.00 0.00 60 1014.8
20260504204546 67 100 1.7 1.7 0.00 0.00 0.00 65 1014.8
20260504203544 66 104 1.7 1.7 0.00 0.00 0.00 65 1015.0
20260504202603 65 164 2.6 2.6 0.00 0.00 0.00 65 1015.0
20260504201542 65 129 0.9 2.6 0.00 0.00 0.00 65 1015.0
20260504200600 65 131 1.7 3.5 0.00 0.00 0.00 67 1015.3
20260504195539 64 63 0.0 2.6 0.00 0.00 0.00 67 1015.3
20260504194618 64 0.0 2.6 0.00 0.00 0.00 68 1015.3
20260504193537 63 0.0 0.9 0.00 0.00 0.00 70 1015.4
20260504192535 61 112 1.7 4.3 0.00 0.00 0.00 71 1015.4
20260504191534 59 139 0.9 2.6 0.00 0.00 0.00 75 1015.4
20260504185532 58 171 0.9 2.6 0.00 0.00 0.00 77 1015.6
20260504184530 58 117 0.9 2.6 0.00 0.00 0.00 78 1015.8
20260504183529 57 160 0.9 2.6 0.00 0.00 0.00 78 1015.7
20260504182528 58 162 0.9 2.6 0.00 0.00 0.00 79 1015.6
20260504181527 57 111 0.9 2.6 0.00 0.00 0.00 79 1015.6
20260504180525 57 169 0.9 3.5 0.00 0.00 0.00 80 1015.7
20260504175545 56 122 0.0 1.7 0.00 0.00 0.00 81 1015.6
20260504174523 56 155 0.9 2.6 0.00 0.00 0.00 81 1015.7
20260504173522 56 177 0.9 1.7 0.00 0.00 0.00 81 1015.6
20260504172522 56 198 0.9 2.6 0.00 0.00 0.00 82 1015.5
20260504171519 55 172 0.9 2.6 0.00 0.00 0.00 83 1015.5
20260504170518 55 139 0.0 2.6 0.00 0.00 0.00 83 1015.6
20260504150603 53 257 1.7 3.5 0.00 0.00 0.00 89 1015.0